When you browse on this site, cookies collect data to enhance your experience and personalize the content and advertising you see.
Visit our Privacy Policy to learn more. By continuing to use the site, you agree to this use of cookies and data.
  • In Hungary
  • List of Countries
  • For 7 days
  • Water Temperature
  • Satellite Maps
  • Weather Map
  • News
  • Weather Widgets
  • user-avatar
    Login

    Hourly Weather Gorzyn

    Today, 19 May, Sunday

    Time Temperature Precipitation Wind Pressure Humidity
    00:00 +14°C° 0 mm 2 mps 746 mmHg 85%
    01:00 +14°C° 0 mm 2 mps 746 mmHg 87%
    02:00 +14°C° 0.3 mm 1 mps 746 mmHg 88%
    03:00 +13°C° 0.3 mm 1 mps 746 mmHg 89%
    04:00 +13°C° 0.3 mm 1 mps 746 mmHg 90%
    05:00 +14°C° 0.2 mm 1 mps 746 mmHg 87%
    06:00 +16°C° 0.2 mm 1 mps 745 mmHg 84%
    07:00 +18°C° 0.2 mm 1 mps 745 mmHg 81%
    08:00 +19°C° 0.1 mm 2 mps 745 mmHg 75%
    09:00 +21°C° 0.1 mm 2 mps 745 mmHg 69%
    10:00 +23°C° 0.1 mm 2 mps 745 mmHg 63%
    11:00 +24°C° 0.3 mm 2 mps 745 mmHg 60%
    12:00 +25°C° 0.3 mm 2 mps 744 mmHg 57%
    13:00 +25°C° 0.3 mm 3 mps 744 mmHg 53%
    14:00 +25°C° 0 mm 3 mps 744 mmHg 54%
    15:00 +26°C° 0 mm 3 mps 744 mmHg 54%
    16:00 +26°C° 0 mm 3 mps 743 mmHg 54%
    17:00 +24°C° 0 mm 2 mps 743 mmHg 61%
    18:00 +23°C° 0 mm 2 mps 743 mmHg 67%
    19:00 +21°C° 0 mm 2 mps 743 mmHg 73%
    20:00 +20°C° 0.2 mm 1 mps 743 mmHg 78%
    21:00 +19°C° 0.2 mm 1 mps 743 mmHg 82%
    22:00 +16°C° 0.2 mm 1 mps 743 mmHg 86%
    23:00 +16°C° 0 mm 1 mps 743 mmHg 87%

    Tomorrow, 20 May, Monday

    Time Temperature Precipitation Wind Pressure Humidity
    00:00 +16°C° 0 mm 1 mps 743 mmHg 88%
    01:00 +15°C° 0 mm 1 mps 743 mmHg 89%
    02:00 +15°C° 0 mm 1 mps 743 mmHg 90%
    03:00 +15°C° 0 mm 1 mps 743 mmHg 90%
    04:00 +14°C° 0 mm 1 mps 743 mmHg 91%
    05:00 +16°C° 0 mm 1 mps 743 mmHg 87%
    06:00 +18°C° 0 mm 1 mps 743 mmHg 84%
    07:00 +19°C° 0 mm 1 mps 743 mmHg 81%
    08:00 +21°C° 0.2 mm 1 mps 743 mmHg 77%
    09:00 +21°C° 0.2 mm 2 mps 743 mmHg 74%
    10:00 +22°C° 0.2 mm 3 mps 742 mmHg 71%
    11:00 +21°C° 0.9 mm 3 mps 742 mmHg 76%
    12:00 +20°C° 0.9 mm 3 mps 742 mmHg 81%
    13:00 +18°C° 0.9 mm 4 mps 742 mmHg 86%
    14:00 +19°C° 0 mm 4 mps 742 mmHg 79%
    15:00 +21°C° 0 mm 4 mps 742 mmHg 71%
    16:00 +22°C° 0 mm 4 mps 742 mmHg 64%
    17:00 +21°C° 0 mm 4 mps 742 mmHg 69%
    18:00 +20°C° 0 mm 3 mps 742 mmHg 74%
    19:00 +19°C° 0 mm 3 mps 742 mmHg 80%
    20:00 +18°C° 0 mm 3 mps 742 mmHg 82%
    21:00 +17°C° 0 mm 3 mps 743 mmHg 84%
    22:00 +14°C° 0 mm 3 mps 743 mmHg 87%
    23:00 +14°C° 0 mm 3 mps 743 mmHg 88%

    Day after tomorrow, 21 May, Tuesday

    Time Temperature Precipitation Wind Pressure Humidity
    00:00 +13°C° 0 mm 3 mps 743 mmHg 89%
    01:00 +13°C° 0 mm 3 mps 743 mmHg 90%
    02:00 +12°C° 0 mm 3 mps 743 mmHg 90%
    03:00 +12°C° 0 mm 3 mps 743 mmHg 91%
    04:00 +11°C° 0 mm 3 mps 743 mmHg 91%
    05:00 +12°C° 0 mm 3 mps 743 mmHg 86%
    06:00 +14°C° 0 mm 3 mps 744 mmHg 81%
    07:00 +16°C° 0 mm 3 mps 744 mmHg 75%
    08:00 +17°C° 0 mm 3 mps 744 mmHg 70%
    09:00 +18°C° 0 mm 3 mps 744 mmHg 65%
    10:00 +20°C° 0 mm 3 mps 744 mmHg 60%
    11:00 +21°C° 0 mm 3 mps 744 mmHg 57%
    12:00 +22°C° 0 mm 3 mps 744 mmHg 54%
    13:00 +24°C° 0 mm 2 mps 744 mmHg 51%
    14:00 +24°C° 0 mm 2 mps 743 mmHg 52%
    15:00 +24°C° 0 mm 1 mps 743 mmHg 52%
    16:00 +24°C° 0 mm 1 mps 743 mmHg 52%
    17:00 +23°C° 0 mm 1 mps 743 mmHg 57%
    18:00 +22°C° 0 mm 1 mps 743 mmHg 62%
    19:00 +21°C° 0 mm 1 mps 743 mmHg 66%
    20:00 +20°C° 0 mm 1 mps 744 mmHg 70%
    21:00 +18°C° 0 mm 2 mps 744 mmHg 73%
    22:00 +17°C° 0 mm 2 mps 744 mmHg 76%
    23:00 +16°C° 0 mm 2 mps 744 mmHg 78%

    22 May, Wednesday

    Time Temperature Precipitation Wind Pressure Humidity
    00:00 +16°C° 0 mm 3 mps 744 mmHg 80%
    01:00 +16°C° 0 mm 3 mps 744 mmHg 82%
    02:00 +16°C° 0.1 mm 3 mps 744 mmHg 86%
    03:00 +15°C° 0.1 mm 2 mps 744 mmHg 89%
    04:00 +15°C° 0.1 mm 2 mps 745 mmHg 92%
    05:00 +15°C° 1.3 mm 2 mps 745 mmHg 93%
    06:00 +15°C° 1.3 mm 2 mps 745 mmHg 94%
    07:00 +15°C° 1.3 mm 2 mps 745 mmHg 95%
    08:00 +16°C° 2.2 mm 3 mps 746 mmHg 93%
    09:00 +16°C° 2.2 mm 3 mps 746 mmHg 92%
    10:00 +17°C° 2.2 mm 4 mps 746 mmHg 90%
    11:00 +16°C° 1.3 mm 5 mps 747 mmHg 90%
    12:00 +16°C° 1.3 mm 5 mps 747 mmHg 90%
    13:00 +16°C° 1.3 mm 6 mps 747 mmHg 89%
    14:00 +16°C° 0.2 mm 6 mps 747 mmHg 88%
    15:00 +15°C° 0.2 mm 6 mps 747 mmHg 87%
    16:00 +15°C° 0.2 mm 6 mps 748 mmHg 86%
    17:00 +15°C° 0.1 mm 6 mps 748 mmHg 88%
    18:00 +14°C° 0.1 mm 6 mps 748 mmHg 89%
    19:00 +13°C° 0.1 mm 5 mps 749 mmHg 91%
    20:00 +13°C° 0.3 mm 5 mps 749 mmHg 92%
    21:00 +13°C° 0.3 mm 4 mps 749 mmHg 94%
    22:00 +13°C° 0.3 mm 3 mps 750 mmHg 95%
    23:00 +13°C° 0 mm 4 mps 750 mmHg 95%

    23 May, Thursday

    Time Temperature Precipitation Wind Pressure Humidity
    00:00 +12°C° 0 mm 4 mps 750 mmHg 95%
    01:00 +12°C° 0 mm 5 mps 750 mmHg 94%
    02:00 +12°C° 0 mm 5 mps 751 mmHg 94%
    03:00 +10°C° 0 mm 5 mps 751 mmHg 95%
    04:00 +9°C° 0 mm 5 mps 751 mmHg 95%
    05:00 +9°C° 0 mm 5 mps 751 mmHg 92%
    06:00 +9°C° 0 mm 5 mps 752 mmHg 89%
    07:00 +10°C° 0 mm 5 mps 752 mmHg 86%
    08:00 +11°C° 0 mm 6 mps 752 mmHg 77%
    09:00 +14°C° 0 mm 6 mps 752 mmHg 69%
    10:00 +15°C° 0 mm 6 mps 752 mmHg 60%
    11:00 +16°C° 0 mm 5 mps 752 mmHg 57%
    12:00 +17°C° 0 mm 5 mps 752 mmHg 54%
    13:00 +19°C° 0 mm 5 mps 752 mmHg 51%
    14:00 +19°C° 0 mm 4 mps 752 mmHg 51%
    15:00 +19°C° 0 mm 4 mps 751 mmHg 51%
    16:00 +19°C° 0 mm 3 mps 751 mmHg 52%
    17:00 +17°C° 0 mm 3 mps 751 mmHg 57%
    18:00 +16°C° 0 mm 2 mps 751 mmHg 62%
    19:00 +15°C° 0 mm 1 mps 751 mmHg 68%
    20:00 +14°C° 0 mm 1 mps 751 mmHg 69%
    21:00 +13°C° 0 mm 1 mps 751 mmHg 70%
    22:00 +12°C° 0 mm 1 mps 751 mmHg 71%
    23:00 +12°C° 0 mm 1 mps 751 mmHg 73%

    24 May, Friday

    Time Temperature Precipitation Wind Pressure Humidity
    00:00 +11°C° 0 mm 1 mps 751 mmHg 74%
    01:00 +10°C° 0 mm 2 mps 751 mmHg 76%
    02:00 +10°C° 0 mm 2 mps 750 mmHg 78%
    03:00 +9°C° 0 mm 2 mps 750 mmHg 80%
    04:00 +9°C° 0 mm 2 mps 750 mmHg 82%
    05:00 +10°C° 0 mm 2 mps 750 mmHg 79%
    06:00 +13°C° 0 mm 2 mps 750 mmHg 77%
    07:00 +14°C° 0 mm 3 mps 750 mmHg 74%
    08:00 +16°C° 0 mm 3 mps 749 mmHg 70%
    09:00 +18°C° 0 mm 3 mps 749 mmHg 66%
    10:00 +20°C° 0 mm 3 mps 749 mmHg 62%
    11:00 +20°C° 0.1 mm 3 mps 748 mmHg 62%
    12:00 +21°C° 0.1 mm 4 mps 748 mmHg 62%
    13:00 +21°C° 0.1 mm 4 mps 748 mmHg 62%
    14:00 +21°C° 0.3 mm 4 mps 747 mmHg 63%
    15:00 +21°C° 0.3 mm 4 mps 747 mmHg 65%
    16:00 +21°C° 0.3 mm 3 mps 747 mmHg 66%
    17:00 +20°C° 0.1 mm 3 mps 747 mmHg 72%
    18:00 +19°C° 0.1 mm 3 mps 747 mmHg 77%
    19:00 +18°C° 0.1 mm 2 mps 746 mmHg 83%
    20:00 +17°C° 0 mm 2 mps 747 mmHg 85%
    21:00 +15°C° 0 mm 2 mps 747 mmHg 87%
    22:00 +14°C° 0 mm 2 mps 747 mmHg 90%
    23:00 +14°C° 0 mm 2 mps 747 mmHg 89%
    Show more